Probability
0 0 0 0 0 0 0 0 0 0 0 0 0 0 0 0 0 0 0 0 0 0 0 0 0 0 0 0 0 0 0 0 0 0 0 0 0 0 0 0 0 0 0
0 0 0 0 0 0 0 0 0 0 0 0 0 0 0 0 0 0 0 0 0 0 0 0 0 0 0 0 0 0 0 0 0 0 0 0 0 0 0 0 0 0 0
0 0 0 0 0 0 0 0 0 0 0 0 0 0 0 0 0 0 0 0 0 0 0 0 0 0 0 0 0 0 0 0 0 0 0 0 0 0 0 0 0 0 0
0 0 0 0 0 0 0 0 0 0 0 0 0 0 0 0 0 0 0 0 0 0 0 0 0 0 0 0 0 0 0 0 0 0 0 0 0 0 0 0 0 0 0
0 0 0 0 0 0 0 0 0 0 0 0 0 0 0 0 0 0 0 0 0 0 0 0 0 0 0 0 0 0 0 0 0 0 0 0 0 0 0 0 0 0 0
0 0 0 0 0 0 0 0 0 0 0 0 0 0 0 0 0 0 0 0 0 0 0 0 0 0 0 0 0 0 0 0 0 0 0 0 0 0 0 0 0 0 0
0 0 0 0 0 0 0 0 0 0 0 0 0 0 0 0 0 0 0 0 0 0 0 0 0 0 0 0 0 0 0 0 0 0 0 0 0 0 0 0 0 0 0
0 0 0 0 0 0 0 0 0 0 0 0 0 0 0 0 0 0 0 0 0 0 0 0 0 0 0 0 0 0 0 0 0 0 0 0 0 0 0 0 0 0 0
0 0 0 0 0 0 0 0 0 0 0 0 0 0 0 0 0 0 0 0 0 0 0 0 0 0 0 0 0 0 0 0 0 0 0 0 0 0 0 0 0 0 0
0 0 0 0 0 0 0 0 0 0 0 0 0 0 0 0 0 0 0 0 0 0 0 0 0 0 0 0 0 0 0 0 0 0 0 0 0 0 0 0 0 0 0
0 0 0 0 0 0 0 0 0 0 0 0 0 0 0 0 0 0 0 0 0 0 0 0 0 0 0 0 0 0 0 0 0 0 0 0 0 0 0 0 0 0 0
0 0 0 0 0 0 0 0 0 0 0 0 0 0 0 0 0 0 0 0 0 0 0 0 0 0 0 0 0 0 0 0 0 0 0 0 0 0 0 0 0 0 0
0 0 0 0 0 0 0 0 0 0 0 0 0 0 0 0 0 0 0 0 0 0 0 0 0 0 0 0 0 0 0 0 0 0 0 0 0 0 0 0 0 0 0
0 0 0 0 0 0 0 0 0 0 0 0 0 0 0 0 0 0 0 0 0 0 0 0 0 0 0 0 0 0 0 0 0 0 0 0 0 0 0 0 0 0 0
0 0 0 0 0 0 0 0 0 0 0 0 0 0 0 0 0 0 0 0 0 0 0 0 0 0 0 0 0 0 0 0 0 0 0 0 0 0 0 0 0 0 0
0 0 0 0 0 0 0 0 0 0 0 0 0 0 0 0 0 0 0 0 0 0 0 0 0 0 0 0 0 0 0 0 0 0 0 0 0 0 0 0 0 0 0
0 0 0 0 0 0 0 0 0 0 0 0 0 0 0 0 0 0 0 0 0 0 0 0 0 0 0 0 0 0 0 0 0 0 0 0 0 0 0 0 0 0 0
0 0 0 0 0 0 0 0 0 0 0 0 0 0 0 0 0 0 0 0 0 0 0 0 0 0 0 0 0 0 0 0 0 0 0 0 0 0 0 0 0 0 0
0 0 0 0 0 0 0 0 0 0 0 0 0 0 0 0 0 0 0 0 0 0 0 0 0 0 0 0 0 0 0 0 0 0 0 0 0 0 0 0 0 0 0
0 0 0 0 0 0 0 0 0 0 0 0 0 0 0 0 0 0 0 0 0 0 0 0 0 0 0 0 0 0 0 0 0 0 0 0 0 0 0 0 0 0 0
0 0 0 0 0 0 0 0 0 0 0 0 0 0 0 0 0 0 0 0 0 0 0 0 0 0 0 0 0 0 0 0 0 0 0 0 0 0 0 0 0 0 0
0 0 0 0 0 0 0 0 0 0 0 0 0 0 0 0 0 0 0 0 0 0 0 0 0 0 0 0 0 0 0 0 0 0 0 0 0 0 0 0 0 0 0
0 0 0 0 0 0 0 0 0 0 0 0 0 0 0 0 0 0 0 0 0 0 0 0 0 0 0 0 0 0 0 0 0 0 0 0 0 0 0 0 0 0 0
0 0 0 0 0 0 0 0 0 0 0 0 0 0 0 0 0 0 0 0 0 0 0 0 0 0 0 0 0 0 0 0 0 0 0 0 0 0 0 0 0 0 0
0 0 0 0 0 0 0 0 0 0 0 0 0 0 0 0 0 0 0 0 0 0 0 0 0 0 0 0 0 0 0 0 0 0 0 0 0 0 0 0 0 0 0
0 0 0 0 0 0 0 0 0 0 0 0 0 0 0 0 0 0 0 0 0 0 0 0 0 0 0 0 0 0 0 0 0 0 0 0 0 0 0 0 0 0 0
Height
5821 5815 5809 5803 5797 5790 5783 5776 5768 5759 5750 5740 5729 5718 5706 5692 5678 5662 5645 5626 5606 5585 5564 5545 5526 5509 5493 5476 5459 5444 5429 5413 5395 5380 5369 5360 5347 5339 5338 5344 5354 5367 5380
5816 5811 5805 5798 5792 5784 5777 5769 5760 5751 5741 5730 5719 5707 5694 5680 5664 5648 5630 5610 5590 5568 5548 5529 5511 5494 5478 5461 5444 5427 5411 5396 5378 5360 5347 5337 5330 5320 5315 5319 5328 5339 5352
5813 5807 5800 5793 5786 5778 5770 5761 5752 5742 5731 5720 5708 5695 5682 5667 5651 5634 5615 5595 5574 5553 5533 5515 5497 5480 5463 5447 5430 5413 5396 5381 5367 5349 5333 5319 5311 5306 5302 5302 5309 5319 5331
5808 5802 5795 5788 5780 5772 5763 5754 5744 5733 5722 5710 5697 5684 5670 5655 5639 5621 5602 5582 5560 5540 5520 5502 5485 5468 5451 5434 5418 5401 5384 5368 5355 5342 5328 5315 5303 5296 5293 5293 5296 5304 5315
5804 5797 5790 5782 5774 5765 5756 5746 5735 5724 5712 5700 5687 5673 5659 5643 5627 5609 5590 5569 5549 5528 5509 5492 5475 5458 5441 5424 5408 5392 5375 5359 5345 5333 5322 5312 5303 5294 5288 5287 5289 5295 5304
5799 5792 5785 5777 5768 5759 5749 5738 5727 5715 5702 5689 5676 5662 5648 5632 5615 5597 5578 5558 5538 5519 5500 5483 5466 5449 5432 5416 5400 5384 5368 5353 5339 5327 5316 5308 5300 5293 5287 5285 5285 5289 5296
5795 5788 5779 5771 5762 5752 5742 5730 5719 5707 5694 5680 5666 5652 5637 5621 5604 5586 5568 5548 5529 5511 5493 5475 5458 5441 5425 5408 5392 5377 5361 5347 5334 5322 5313 5305 5297 5291 5286 5283 5282 5284 5290
5790 5782 5774 5765 5756 5745 5735 5723 5711 5699 5685 5671 5657 5643 5627 5611 5594 5576 5558 5539 5520 5502 5485 5468 5451 5434 5418 5402 5386 5371 5355 5341 5329 5318 5309 5302 5295 5289 5285 5281 5280 5282 5286
5785 5777 5769 5759 5749 5739 5728 5716 5704 5691 5677 5663 5649 5634 5618 5602 5585 5568 5549 5530 5512 5495 5478 5461 5445 5428 5412 5396 5381 5366 5351 5337 5324 5314 5305 5298 5292 5287 5283 5280 5278 5279 5283
5780 5772 5763 5753 5744 5733 5722 5710 5697 5684 5670 5656 5641 5626 5610 5594 5578 5560 5542 5523 5505 5488 5472 5456 5440 5424 5408 5392 5377 5362 5347 5333 5321 5310 5302 5295 5289 5285 5281 5278 5277 5277 5280
5774 5765 5757 5747 5737 5727 5715 5703 5691 5677 5663 5649 5634 5619 5603 5587 5570 5553 5535 5517 5500 5483 5466 5450 5435 5419 5404 5389 5374 5359 5345 5331 5319 5308 5299 5292 5286 5282 5279 5277 5276 5276 5278
5768 5759 5751 5741 5731 5721 5709 5697 5684 5671 5657 5642 5627 5612 5597 5581 5564 5547 5529 5512 5494 5478 5462 5446 5431 5416 5401 5386 5371 5357 5343 5329 5317 5306 5297 5290 5284 5280 5277 5275 5274 5274 5276
5762 5753 5745 5735 5725 5715 5703 5691 5678 5665 5651 5637 5622 5606 5591 5575 5558 5542 5524 5507 5490 5474 5458 5443 5428 5413 5398 5384 5369 5356 5342 5329 5316 5305 5296 5289 5283 5279 5276 5274 5273 5273 5274
5755 5747 5739 5729 5720 5709 5698 5686 5673 5660 5646 5631 5616 5601 5585 5570 5553 5537 5520 5503 5486 5471 5455 5440 5425 5411 5396 5382 5368 5355 5342 5329 5316 5305 5296 5289 5283 5279 5275 5273 5272 5272 5273
5748 5740 5732 5723 5713 5703 5692 5680 5668 5654 5640 5626 5611 5596 5580 5565 5549 5532 5516 5499 5483 5467 5452 5438 5423 5409 5395 5381 5368 5355 5341 5329 5317 5306 5297 5289 5283 5278 5275 5272 5271 5271 5271
5742 5734 5725 5717 5707 5697 5686 5675 5662 5649 5635 5621 5606 5591 5576 5560 5545 5529 5513 5496 5481 5465 5450 5436 5422 5407 5394 5380 5367 5353 5341 5329 5318 5308 5299 5291 5284 5279 5275 5272 5270 5269 5269
5734 5727 5719 5710 5701 5691 5681 5669 5657 5644 5630 5616 5602 5587 5572 5557 5541 5525 5510 5494 5479 5464 5449 5435 5421 5407 5394 5381 5368 5354 5342 5331 5320 5310 5301 5293 5286 5280 5275 5272 5270 5269 5268
5727 5720 5712 5703 5694 5685 5674 5663 5651 5639 5625 5612 5597 5583 5568 5553 5538 5522 5507 5492 5477 5463 5449 5434 5421 5407 5394 5381 5369 5356 5345 5333 5323 5313 5303 5295 5288 5282 5277 5273 5270 5269 5268
5720 5712 5704 5696 5687 5678 5668 5657 5645 5633 5620 5607 5593 5579 5564 5550 5535 5520 5504 5490 5475 5461 5447 5434 5421 5407 5394 5382 5370 5358 5347 5335 5325 5315 5306 5298 5291 5284 5279 5275 5272 5270 5268
5711 5704 5696 5688 5680 5671 5661 5651 5640 5628 5616 5603 5589 5575 5561 5546 5532 5517 5502 5488 5473 5459 5445 5432 5420 5407 5394 5382 5371 5359 5349 5338 5327 5318 5309 5301 5293 5287 5282 5277 5274 5271 5269
5701 5694 5687 5680 5672 5663 5654 5644 5633 5622 5611 5598 5585 5572 5558 5544 5529 5515 5501 5486 5472 5458 5445 5432 5419 5407 5395 5383 5372 5361 5350 5340 5330 5320 5312 5304 5297 5290 5285 5280 5276 5273 5271
5690 5684 5677 5670 5663 5655 5646 5637 5627 5617 5606 5594 5581 5568 5555 5541 5527 5513 5499 5485 5471 5457 5444 5431 5419 5407 5396 5385 5374 5363 5352 5342 5333 5323 5315 5307 5300 5294 5288 5284 5279 5276 5274
5679 5673 5667 5660 5654 5646 5639 5630 5621 5611 5600 5589 5577 5564 5552 5539 5525 5511 5497 5484 5470 5457 5444 5432 5420 5409 5398 5387 5376 5366 5356 5345 5336 5326 5317 5310 5303 5297 5292 5288 5284 5280 5278
5668 5662 5656 5650 5644 5637 5630 5623 5614 5604 5594 5584 5573 5561 5548 5536 5523 5510 5496 5483 5470 5456 5444 5432 5421 5410 5400 5389 5379 5369 5359 5349 5339 5330 5321 5313 5306 5301 5296 5292 5288 5285 5282
5655 5650 5645 5640 5634 5628 5621 5614 5606 5598 5588 5578 5568 5556 5545 5533 5521 5508 5495 5482 5469 5456 5444 5433 5422 5412 5401 5391 5381 5371 5362 5352 5343 5333 5325 5317 5311 5305 5300 5296 5292 5289 5287
5642 5638 5634 5629 5624 5618 5612 5605 5598 5590 5582 5573 5563 5552 5541 5529 5518 5505 5493 5480 5468 5455 5443 5431 5421 5411 5401 5391 5382 5372 5363 5354 5345 5337 5329 5322 5315 5308 5304 5300 5296 5294 5291
Wind_Speed
32 35 37 39 41 43 46 48 50 52 55 57 60 64 67 70 73 77 82 86 89 91 88 84 79 76 74 74 73 74 71 70 70 67 62 58 56 56 59 63 68 74 82
33 35 37 40 42 44 46 48 50 53 55 58 61 64 68 71 74 78 83 86 89 88 84 80 76 74 73 72 72 71 70 67 65 64 61 54 44 43 46 52 59 68 76
34 36 38 41 43 45 47 49 51 53 56 59 62 65 68 71 75 79 83 86 87 84 81 77 74 73 72 71 70 69 68 65 60 58 57 52 42 33 32 40 49 60 69
35 38 40 42 44 47 49 51 53 55 57 60 63 66 69 72 75 79 83 85 84 82 78 75 72 72 71 69 68 67 66 63 58 53 48 45 40 32 23 28 39 52 63
37 40 42 44 47 49 52 54 55 57 59 61 64 67 70 72 76 80 82 83 81 79 76 73 71 70 69 68 67 65 63 60 56 50 44 38 34 29 22 20 30 43 55
38 41 44 46 49 52 55 57 59 60 61 63 66 68 70 73 76 79 81 81 79 76 73 71 70 69 68 66 65 64 61 57 52 46 40 36 31 26 20 16 22 34 47
39 42 45 48 51 54 57 59 62 63 64 65 67 69 71 73 76 79 80 80 77 74 71 69 68 67 66 65 64 62 60 56 50 43 37 32 28 24 19 14 16 26 38
40 43 47 50 53 56 59 61 64 65 66 67 69 71 72 73 76 78 79 79 76 72 70 68 67 66 65 63 62 61 59 55 48 41 35 30 26 22 18 14 14 21 31
41 45 48 51 54 57 60 63 65 67 69 69 70 72 72 74 76 78 78 77 74 71 69 67 66 65 64 62 61 60 58 54 47 40 34 28 24 21 17 14 13 18 26
42 46 49 52 55 58 61 64 67 69 70 71 72 73 73 74 75 77 77 75 73 70 68 66 65 64 63 61 60 59 57 53 47 40 34 28 24 20 16 14 13 16 23
44 47 50 53 56 59 62 65 68 70 71 73 73 73 73 74 75 76 76 74 72 69 67 65 65 64 62 60 59 58 56 52 46 40 33 28 23 19 16 14 12 15 20
45 48 51 54 57 60 63 66 68 70 72 73 74 74 74 74 74 75 75 73 71 68 66 65 64 63 62 60 58 57 55 51 46 40 33 27 23 18 16 13 12 14 17
46 49 51 54 57 60 63 66 68 71 72 74 75 75 74 74 74 75 74 72 70 67 65 64 63 62 61 59 58 56 54 51 46 40 33 27 22 18 15 12 11 12 15
48 50 52 55 57 60 63 66 68 71 72 74 75 75 74 74 74 74 74 71 69 66 64 63 62 61 60 59 57 55 53 50 46 41 34 28 23 19 15 12 10 11 14
49 51 53 55 57 60 62 65 68 70 72 74 75 76 75 74 74 74 73 71 68 66 63 62 61 60 59 58 56 54 53 50 46 41 35 29 24 19 16 13 11 10 12
50 52 53 55 57 60 62 65 67 70 72 74 75 76 75 74 73 73 73 70 67 65 62 61 60 59 58 57 56 54 52 49 46 41 35 30 26 21 17 13 11 9 10
51 53 53 55 57 59 61 64 66 69 71 73 74 75 75 74 73 73 72 70 67 64 61 59 59 58 57 56 55 53 51 48 45 40 36 32 27 23 18 14 11 9 9
52 53 54 54 56 59 61 63 65 68 70 72 73 75 75 73 72 72 71 70 67 64 61 58 58 57 56 55 54 52 50 47 44 40 36 32 28 24 19 15 11 9 7
52 53 53 54 56 58 60 62 64 67 69 71 72 74 74 73 72 71 71 69 67 64 61 58 57 56 55 54 52 51 49 46 43 40 36 31 27 23 20 16 12 9 7
52 53 53 53 55 57 59 61 64 66 68 70 71 72 73 73 71 70 70 69 67 64 61 58 56 55 54 53 52 50 49 46 43 40 36 31 27 24 21 17 14 10 7
53 53 54 54 54 56 58 61 63 65 67 69 70 71 72 72 70 69 69 68 66 63 60 57 56 54 53 52 50 49 48 47 43 39 35 31 27 24 21 18 15 12 7
54 54 55 54 55 56 58 60 63 65 66 67 68 69 70 71 69 68 67 67 65 62 59 56 54 53 52 51 49 48 47 46 43 40 35 31 27 24 21 19 16 13 9
55 55 55 55 55 56 58 60 62 64 65 66 67 68 69 69 68 66 66 65 64 62 59 55 53 51 50 49 48 46 45 44 43 41 37 32 27 24 20 18 17 14 11
56 56 56 56 57 58 59 60 62 63 64 65 65 66 67 67 67 65 64 64 63 61 58 55 52 50 49 47 46 44 43 43 42 40 38 34 28 24 21 17 16 14 12
59 58 58 58 58 59 60 61 62 63 63 63 64 64 65 66 65 64 63 63 63 62 59 55 51 48 47 46 46 44 43 42 41 40 38 36 30 24 20 17 14 13 12
62 61 60 60 60 60 61 61 62 62 62 62 62 62 63 63 63 62 61 61 62 61 58 55 50 47 46 45 45 44 42 41 40 40 38 36 32 26 20 16 13 11 10
Wind_Direction
340 337 335 333 331 329 328 327 326 326 325 325 325 325 325 325 325 325 324 324 325 325 325 325 325 324 323 322 320 319 318 317 314 311 307 302 292 279 264 252 243 237 233
344 342 339 337 335 333 331 330 329 328 327 327 327 327 327 327 327 327 327 327 328 328 328 328 328 327 326 325 324 324 323 322 320 318 316 312 302 286 267 251 240 233 229
348 347 345 343 341 338 336 334 332 331 330 330 330 330 330 329 329 329 330 330 331 331 331 331 330 330 329 329 329 328 327 327 326 324 323 322 317 300 273 252 237 230 226
350 349 349 347 345 344 341 339 337 335 334 333 332 332 332 332 332 332 332 333 334 334 334 333 333 333 333 332 332 332 331 330 330 328 327 327 326 319 289 256 237 228 224
352 351 350 349 348 347 346 344 342 340 337 336 335 335 335 334 334 335 335 336 336 336 336 336 335 335 335 335 335 335 334 333 332 331 330 330 331 327 310 269 241 228 222
352 351 350 350 349 348 348 347 346 343 341 339 338 337 337 336 336 337 338 339 339 339 338 338 338 338 338 337 338 338 337 336 334 332 331 332 333 332 321 287 248 231 222
351 350 350 349 349 349 348 348 347 346 344 342 341 340 339 338 338 339 340 341 341 341 340 340 340 340 340 340 340 341 340 339 337 334 331 330 331 330 323 299 255 232 222
349 349 349 349 349 349 349 348 348 347 346 344 343 342 341 340 340 341 342 343 343 343 342 342 342 343 343 342 342 343 342 341 339 336 331 329 328 325 318 301 263 234 222
347 347 348 348 348 348 348 349 348 348 347 346 345 343 342 342 342 343 344 344 345 345 344 344 345 345 345 345 345 345 345 344 341 338 333 327 324 319 312 298 269 239 223
345 346 346 347 347 347 347 348 348 348 348 347 346 345 344 343 344 345 345 346 346 346 346 346 347 347 347 347 347 347 347 346 344 340 336 330 324 317 307 293 270 242 226
342 344 345 345 346 346 347 347 348 348 348 348 347 346 345 345 345 346 347 347 348 348 348 348 348 349 349 350 350 350 349 348 346 343 339 334 328 319 308 293 271 245 229
339 341 342 343 344 345 346 347 347 348 348 348 348 347 346 346 347 347 349 349 349 349 349 350 350 350 351 352 352 352 352 351 350 347 343 338 333 324 312 296 273 249 233
335 337 339 341 343 344 345 346 347 347 348 348 348 348 347 347 347 349 350 350 351 351 351 351 351 352 352 353 353 354 354 354 353 351 347 343 337 329 319 304 279 253 237
332 334 336 339 341 342 343 344 345 347 348 348 348 348 348 347 348 350 351 352 352 352 352 352 352 353 354 354 355 355 356 356 356 354 352 348 342 335 325 311 290 261 241
328 331 333 336 338 340 342 343 344 346 347 348 348 348 348 348 349 350 352 353 353 353 353 353 354 354 355 355 356 357 358 358 358 357 356 353 349 343 333 319 299 273 249
324 327 330 333 335 338 340 342 343 344 346 347 348 348 348 348 349 351 352 353 354 354 354 354 355 355 356 357 357 358 360 360 360 360 359 356 353 348 340 328 312 288 259
320 324 327 330 332 335 338 340 342 343 345 346 347 348 348 348 349 351 353 354 355 355 355 355 356 356 357 358 359 359 360 1 1 2 2 0 358 356 349 338 324 302 271
317 320 324 327 330 332 335 338 340 342 344 345 346 347 348 348 349 350 353 354 355 356 356 356 356 357 358 359 360 1 0 1 2 3 3 2 1 0 359 352 340 326 294
314 317 320 324 327 330 333 336 338 340 342 344 345 347 348 348 349 350 352 355 356 356 357 357 357 358 359 360 0 1 2 2 3 3 4 4 3 2 2 360 354 343 323
311 314 318 321 324 328 331 333 336 339 341 343 344 345 347 347 348 350 352 354 356 357 357 358 358 359 360 0 1 2 3 3 3 4 5 5 5 5 5 5 2 355 342
309 311 315 318 321 325 328 331 334 336 339 341 343 344 346 347 348 349 351 354 356 357 357 358 359 359 0 1 1 2 3 5 5 5 5 5 6 7 8 11 10 8 6
306 308 312 315 318 322 325 328 331 334 336 339 341 343 344 346 347 348 351 353 356 357 358 358 359 359 0 1 2 3 4 5 6 6 7 7 7 9 11 14 17 19 24
303 306 309 312 315 318 322 325 329 331 334 337 339 341 343 344 346 347 350 353 355 357 358 358 359 360 0 1 2 3 4 5 7 8 9 9 9 10 12 16 20 24 30
300 302 305 308 311 314 318 322 325 328 331 334 336 339 341 343 344 346 349 352 355 357 358 358 359 360 1 2 2 3 4 7 8 9 10 11 10 11 13 16 22 27 33
296 298 301 304 307 310 314 317 321 324 327 330 333 336 339 341 343 345 347 350 354 356 357 358 359 0 1 1 2 3 5 7 9 10 12 12 10 9 11 15 21 25 32
293 295 298 301 304 306 309 313 316 320 323 327 330 333 336 339 341 343 346 349 352 356 358 358 359 360 1 2 3 4 5 6 8 10 11 11 12 11 10 13 19 25 31